Regional Weather Roundup
Issued by NWS

Home | Current Version | Previous Version | Graphics & Text | Print | Product List | Glossary On
Versions: 1 2 3 4 5 6 7 8 9 10 11 12 13 14 15 16 17 18 19 20 21 22 23 24 25 26 27 28 29 30 31 32 33 34 35 36 37 38 39 40 41 42 43 44 45 46 47 48 49 50
000
ASUS43 KLSX 201759
RWRMO

WEATHER SUMMARY FOR MISSOURI
NATIONAL WEATHER SERVICE SPRINGFIELD MO
100 PM CDT SAT SEP 20 2014

NOTE: "FAIR" INDICATES FEW OR NO CLOUDS BELOW 12,000 FEET WITH NO
       SIGNIFICANT WEATHER AND/OR OBSTRUCTIONS TO VISIBILITY.
       CURRENT SKY AND/OR WEATHER CONDITIONS ARE NOT AVAILABLE FOR
       CHILLICOTHE AND FARMINGTON.

MOZ001>031-035>038-043-044-053-054-201900-
...NORTHERN AND WESTERN MISSOURI...

CITY           SKY/WX    TMP DP  RH WIND       PRES   REMARKS
KANSAS CTY INT PTSUNNY   79  70  74 SW14      29.97F
6HR MIN TEMP:  67; 6HR MAX TEMP:  81;

KANSAS C DTWN  MOSUNNY   83  69  62 SW12      29.96F
6HR MIN TEMP:  71; 6HR MAX TEMP:  84;

LEE`S SUMMIT   MOSUNNY   83  70  64 SW16      29.99F
6HR MIN TEMP:  68; 6HR MAX TEMP:  83;

ST JOSEPH      CLOUDY    75  70  84 W6        29.94F
6HR MIN TEMP:  67; 6HR MAX TEMP:  78;

KIRKSVILLE     CLOUDY    76  69  79 SW9       29.96R
6HR MIN TEMP:  65; 6HR MAX TEMP:  76;


$$
MOZ066>068-077>081-088>096-101>105-201900-
...SOUTHWEST MISSOURI...

CITY           SKY/WX    TMP DP  RH WIND       PRES   REMARKS
SPRINGFIELD    MOSUNNY   83  69  62 SW16      30.04F
6HR MIN TEMP:  65; 6HR MAX TEMP:  83;

JOPLIN         PTSUNNY   84  72  67 S15       30.04F
6HR MIN TEMP:  67; 6HR MAX TEMP:  84;


$$
MOZ032>034-039>042-045>050-055>058-069>072-201900-
...CENTRAL MISSOURI...

CITY           SKY/WX    TMP DP  RH WIND       PRES   REMARKS
COLUMBIA       MOSUNNY   83  68  60 SW16      29.99F
6HR MIN TEMP:  62; 6HR MAX TEMP:  83;

JEFFERSON CITY SUNNY     85  66  53 W13       29.98F HAZE
6HR MIN TEMP:  64; 6HR MAX TEMP:  85;

ROLLA          MOSUNNY   82  67  60 SW13      30.01F
6HR MIN TEMP:  64; 6HR MAX TEMP:  82;

SEDALIA        SUNNY     83  68  60 SW10G20   30.01S
6HR MIN TEMP:  67; 6HR MAX TEMP:  84;

OSAGE BEACH    MOSUNNY   82  68  61 SW13      30.01F

$$
MOZ051-052-059>065-201900-
...EAST CENTRAL MISSOURI...

CITY           SKY/WX    TMP DP  RH WIND       PRES   REMARKS
ST LOUIS INTL  PTSUNNY   85  70  60 SW16      29.98F
6HR MIN TEMP:  65; 6HR MAX TEMP:  85;

SPIRIT OF STL  PTSUNNY   83  69  62 SW10      29.96F
6HR MIN TEMP:  56; 6HR MAX TEMP:  83;

ST CHARLES     MOSUNNY   84  68  58 W13       29.95F
6HR MIN TEMP:  55; 6HR MAX TEMP:  84; 6HR PCP:  0.01;


$$
MOZ072>076-082>087-097>100-106>115-201900-
...SOUTH CENTRAL AND SOUTHEAST MISSOURI...

CITY           SKY/WX    TMP DP  RH WIND       PRES   REMARKS
CAPE GIRARDEAU MOSUNNY   83  68  60 SW10      30.03F
6HR MIN TEMP:  57; 6HR MAX TEMP:  83;

FARMINGTON     MOSUNNY   82  66  57 SW13      30.05F
6HR MIN TEMP:  61; 6HR MAX TEMP:  82;

POPLAR BLUFF   MOSUNNY   85  66  53 W8        30.04F
6HR MIN TEMP:  58; 6HR MAX TEMP:  85;

WEST PLAINS    MOSUNNY   82  68  62 W9        30.09F
6HR MIN TEMP:  59; 6HR MAX TEMP:  82;


$$



USA.gov is the U.S. government's official web portal to all federal, state and local government web resources and services.